Location: Bothwell
(42.3833°S, 147.0000°E)
Time: 05:11:44
(UTC+10:00)

LilacSat-2 - Visible Passes

Search period start: 25 September 2022 00:00
Search period end: 05 October 2022 01:00
Orbit: 506 x 528 km, 97.5° (Epoch: 24 September)

Date Brightness Start Highest point End Pass type
(mag) Time Alt. Az. Time Alt. Az. Time Alt. Az.
25 Sep ? 04:46:33 10° NE 04:50:10 39° ESE 04:53:50 10° S visible
25 Sep ? 19:27:10 10° SW 19:28:55 13° WSW 19:30:37 10° W visible
26 Sep ? 04:32:34 10° NE 04:35:51 27° ESE 04:39:10 10° SSE visible
26 Sep ? 19:12:00 10° SSW 19:14:38 18° WSW 19:17:15 10° WNW visible
27 Sep ? 04:18:47 10° ENE 04:21:33 19° ESE 04:24:21 10° SSE visible
27 Sep ? 18:57:08 10° SSW 19:00:20 25° WSW 19:03:29 10° NW visible
28 Sep ? 04:05:20 10° E 04:07:16 14° ESE 04:09:14 10° SE visible
28 Sep ? 18:42:27 10° S 18:46:00 36° WSW 18:49:30 10° NW visible
30 Sep ? 05:08:12 10° NNE 05:12:03 72° ESE 05:15:57 10° S visible
01 Oct ? 04:53:56 10° NNE 04:57:39 47° ESE 05:01:25 10° S visible
01 Oct ? 19:35:32 10° SW 19:36:17 10° WSW 19:37:02 10° WSW visible
02 Oct ? 05:39:49 10° NE 05:43:17 32° ESE 05:46:46 10° S visible
02 Oct ? 20:19:47 10° SSW 20:22:00 15° WSW 20:24:12 10° W visible
03 Oct ? 05:25:53 10° ENE 05:28:56 22° ESE 05:32:00 10° SSE visible
03 Oct ? 20:04:46 10° SSW 20:07:41 21° WSW 20:10:34 10° WNW visible
04 Oct ? 05:12:12 10° ENE 05:14:36 16° ESE 05:17:01 10° SSE visible
04 Oct ? 19:49:57 10° S 19:53:20 30° WSW 19:56:38 10° NW visible
